364 
ASUS46 KSEW 211410
RWRWA 

WASHINGTON REGIONAL WEATHER ROUNDUP
NATIONAL WEATHER SERVICE SEATTLE WA
600 AM PST MON JAN 21 2019

NOTE:"FAIR" INDICATES FEW OR NO CLOUDS BELOW 12,000 FEET WITH NO 
SIGNIFICANT WEATHER AND/OR OBSTRUCTIONS TO VISIBILITY.

WAZ507-509-555>559-211500-
SEATTLE, TACOMA, EVERETT, AND VICINITY
  
CITY           SKY/WX    TMP DP  RH WIND       PRES   REMARKS
EVERETT        CLOUDY    39  37  92 S6        30.15R                  
BOEING FIELD   MOCLDY    37  35  92 SE5       30.17R                  
RENTON         CLOUDY    38  35  89 SE3       30.17R                  
SEATAC AIRPORT MOCLDY    38  35  89 SE8       30.15R                  
JBLM-MCCHORD   NOT AVBL                                               
PUYALLUP       FOG       36  36 100 CALM      30.15R VSB 1            
BREMERTON      PTCLDY    31  31 100 CALM      30.16R                  
JBLM-FT LEWIS  NOT AVBL                                               
TACOMA NARROWS FOG       38  37  97 CALM      30.16R VSB 3/4          
$$
 
WAZ001-503-506-510-514-515-211500-
NORTH INTERIOR
  
CITY           SKY/WX    TMP DP  RH WIND       PRES   REMARKS
BELLINGHAM     CLOUDY    33  32  96 CALM      30.15R                  
FRIDAY HARBOR  CLEAR     34  32  92 W3        30.16R                  
EASTSOUND      CLOUDY    41  37  87 CALM      30.15R                  
PORT ANGELES   PTCLDY    33  29  85 W7        30.15R                  
EDIZ HOOK      FAIR      38  34  85 S8        30.17R                  
PORT TOWNSEND  CLOUDY    30  30 100 CALM      30.15R                  
NAS WHIDBEY    PTCLDY    38  34  85 SE5       30.19R                  
ARLINGTON      LGT RAIN  35  34  96 N6        30.17R                  
BURLINGTON     CLOUDY    36  36 100 CALM      30.16R                  
$$
 
WAZ020-022-039-040-504-511-512-211500-
SOUTHWEST INTERIOR
  
CITY           SKY/WX    TMP DP  RH WIND       PRES   REMARKS
SHELTON        MOCLDY    35  33  92 NW3       30.14R                  
OLYMPIA        CLOUDY    34  33  96 CALM      30.17R                  
CHEHALIS       CLOUDY    36  36 100 SW3       30.17R                  
KELSO          CLOUDY    37  36  96 CALM      30.19R                  
VANCOUVER      CLOUDY    36  35  96 CALM      30.19R FOG              
SCAPPOOSE, OR  CLOUDY    36  34  92 CALM      30.18R FOG              
PORTLAND, OR   CLOUDY    39  36  89 CALM      30.19R FOG              
$$
 
WAZ021-516-517-211500-
WASHINGTON COAST
  
CITY           SKY/WX    TMP DP  RH WIND       PRES   REMARKS
FORKS          MOCLDY    33  31  92 CALM      30.16R                  
HOQUIAM        PTCLDY    36  35  96 NE5       30.15R FOG              
ASTORIA, OR    MOCLDY    35  35 100 CALM      30.17R                  
$$
 
WAZ019-023-024-040-567>569-211500-
CASCADE MOUNTAINS AND COLUMBIA GORGE
  
CITY           SKY/WX    TMP DP  RH WIND       PRES   REMARKS
STAMPEDE PASS  FOG       28  25  88 VRB7      30.00R VSB 1/2          
TROUTDALE, OR  CLOUDY    40  36  86 CALM      30.19R                  
HOOD RIVER, OR MOSUNNY   32  30  93 CALM      30.12R                  
THE DALLES, OR PTCLDY    35  31  85 VRB5      30.10R                  
$$

WAZ026-027-041>044-520-521-211500-
EAST SLOPES
  
CITY           SKY/WX    TMP DP  RH WIND       PRES   REMARKS
OMAK           PTCLDY    28  24  85 N9        30.05R                  
WENATCHEE      CLEAR     25  22  88 W10       30.06R WCI  15          
ELLENSBURG     CLEAR     22  17  81 E6        30.04R                  
YAKIMA         CLEAR     24  21  88 W8        30.07R                  
SUNNYSIDE ARPT FOG       30  30 100 CALM      30.08R VSB 1/2          
YAKIMA TC      NOT AVBL                                               
$$

WAZ028-034-035-211500-
COLUMBIA BASIN
  
CITY           SKY/WX    TMP DP  RH WIND       PRES   REMARKS
EPHRATA        CLEAR     30  22  72 SW10      30.03R WCI  21          
MOSES LAKE     CLEAR     29  23  78 W10       30.03R WCI  20          
PASCO          PTCLDY    26  26 100 CALM      30.09R                  
RICHLAND ARPT  SUNNY     29  29 100 CALM      30.08  FOG              
HERMISTON, OR  CLOUDY    38  35  89 SW7       30.07R                  
$$

WAZ036>038-211500-
NORTHEAST WASHINGTON
  
CITY           SKY/WX    TMP DP  RH WIND       PRES   REMARKS
SPOKANE GEIGER PTCLDY    25  23  92 SW5       29.94R                  
SPOKANE FELTS  CLEAR     27  25  92 CALM      29.96R FOG              
FAIRCHILD AFB  NOT AVBL                                               
COEURDALENE,ID MOCLDY    28  26  92 SW5       29.94R                  
DEER PARK      FOG       26  23  88 CALM      29.94R VSB 1/4          
$$

WAZ029>033-211500-
SOUTHEAST WASHINGTON
  
CITY           SKY/WX    TMP DP  RH WIND       PRES   REMARKS
PULLMAN        LGT SNOW  28  27  96 W10       29.97R FOG     WCI  19  
LEWISTON, ID   CLOUDY    36  27  69 NW3       30.00R                  
WALLA WALLA    CLOUDY    35  32  88 S8        30.05                   
PENDLETON, OR  CLOUDY    33  33 100 W8        30.04R                  
$$